When you browse on this site, cookies collect data to enhance your experience and personalize the content and advertising you see.
Visit our Privacy Policy to learn more. By continuing to use the site, you agree to this use of cookies and data.
  • în România
  • Lista ţărilor
  • Pe 7 zile
  • Temperatura apei
  • Hartă satelitară
  • Meteo pe hartă
  • Widget-uri
  • user-avatar
    Intrare

    Meteo pe oră la Trujillo

    Astăzi, 24 Martie, Duminică

    Timp Temperatura Precipitaţii Vânt Presiune Umiditate
    00:00 +22°C° 0 mm 1 m/s 764 mmHg 82%
    01:00 +21°C° 0 mm 1 m/s 763 mmHg 85%
    02:00 +20°C° 0 mm 2 m/s 763 mmHg 89%
    03:00 +19°C° 0 mm 2 m/s 762 mmHg 92%
    04:00 +19°C° 0 mm 2 m/s 763 mmHg 92%
    05:00 +19°C° 0 mm 2 m/s 763 mmHg 92%
    06:00 +19°C° 0 mm 2 m/s 763 mmHg 92%
    07:00 +23°C° 0 mm 2 m/s 763 mmHg 77%
    08:00 +27°C° 0 mm 1 m/s 763 mmHg 62%
    09:00 +30°C° 0 mm 1 m/s 764 mmHg 47%
    10:00 +31°C° 0 mm 2 m/s 763 mmHg 44%
    11:00 +32°C° 0 mm 2 m/s 763 mmHg 42%
    12:00 +33°C° 0 mm 3 m/s 763 mmHg 39%
    13:00 +33°C° 0 mm 3 m/s 762 mmHg 43%
    14:00 +31°C° 0 mm 3 m/s 761 mmHg 48%
    15:00 +30°C° 0 mm 3 m/s 760 mmHg 52%
    16:00 +28°C° 0 mm 3 m/s 760 mmHg 61%
    17:00 +26°C° 0 mm 2 m/s 761 mmHg 69%
    18:00 +24°C° 0 mm 1 m/s 761 mmHg 78%
    19:00 +24°C° 0 mm 1 m/s 761 mmHg 81%
    20:00 +23°C° 0 mm 1 m/s 762 mmHg 84%
    21:00 +21°C° 0 mm 0 m/s 763 mmHg 87%
    22:00 +23°C° 0 mm 1 m/s 763 mmHg 88%
    23:00 +22°C° 0 mm 1 m/s 762 mmHg 89%

    Mâine, 25 Martie, Luni

    Timp Temperatura Precipitaţii Vânt Presiune Umiditate
    00:00 +21°C° 0 mm 2 m/s 762 mmHg 90%
    01:00 +21°C° 0 mm 2 m/s 762 mmHg 91%
    02:00 +21°C° 0 mm 2 m/s 761 mmHg 91%
    03:00 +20°C° 0 mm 2 m/s 761 mmHg 92%
    04:00 +20°C° 0 mm 2 m/s 761 mmHg 92%
    05:00 +20°C° 0 mm 2 m/s 761 mmHg 91%
    06:00 +20°C° 0 mm 2 m/s 761 mmHg 91%
    07:00 +25°C° 0 mm 1 m/s 762 mmHg 79%
    08:00 +28°C° 0 mm 1 m/s 762 mmHg 66%
    09:00 +29°C° 0 mm 0 m/s 763 mmHg 53%
    10:00 +32°C° 0 mm 1 m/s 762 mmHg 51%
    11:00 +34°C° 0 mm 2 m/s 762 mmHg 48%
    12:00 +34°C° 0 mm 3 m/s 761 mmHg 46%
    13:00 +34°C° 0 mm 3 m/s 760 mmHg 49%
    14:00 +33°C° 0 mm 3 m/s 760 mmHg 53%
    15:00 +31°C° 0 mm 3 m/s 759 mmHg 56%
    16:00 +29°C° 0 mm 3 m/s 759 mmHg 66%
    17:00 +27°C° 0 mm 2 m/s 760 mmHg 76%
    18:00 +26°C° 0 mm 2 m/s 760 mmHg 86%
    19:00 +25°C° 0.1 mm 2 m/s 761 mmHg 89%
    20:00 +24°C° 0.1 mm 1 m/s 761 mmHg 92%
    21:00 +24°C° 0.1 mm 1 m/s 762 mmHg 96%
    22:00 +24°C° 0.1 mm 1 m/s 762 mmHg 96%
    23:00 +23°C° 0.1 mm 1 m/s 762 mmHg 97%

    Poimâine, 26 Martie, Marţi

    Timp Temperatura Precipitaţii Vânt Presiune Umiditate
    00:00 +23°C° 0.1 mm 1 m/s 762 mmHg 98%
    01:00 +23°C° 0 mm 1 m/s 761 mmHg 98%
    02:00 +23°C° 0 mm 1 m/s 761 mmHg 98%
    03:00 +22°C° 0 mm 1 m/s 760 mmHg 98%
    04:00 +22°C° 0 mm 1 m/s 761 mmHg 98%
    05:00 +22°C° 0 mm 1 m/s 761 mmHg 98%
    06:00 +21°C° 0 mm 2 m/s 761 mmHg 98%
    07:00 +25°C° 0 mm 1 m/s 762 mmHg 83%
    08:00 +28°C° 0 mm 1 m/s 762 mmHg 69%
    09:00 +31°C° 0 mm 1 m/s 763 mmHg 54%
    10:00 +32°C° 0 mm 1 m/s 762 mmHg 51%
    11:00 +34°C° 0 mm 2 m/s 762 mmHg 47%
    12:00 +34°C° 0 mm 3 m/s 761 mmHg 43%
    13:00 +34°C° 0 mm 3 m/s 760 mmHg 46%
    14:00 +33°C° 0 mm 3 m/s 760 mmHg 49%
    15:00 +31°C° 0 mm 3 m/s 759 mmHg 51%
    16:00 +29°C° 0 mm 3 m/s 759 mmHg 61%
    17:00 +27°C° 0 mm 2 m/s 760 mmHg 72%
    18:00 +25°C° 0 mm 2 m/s 760 mmHg 82%
    19:00 +25°C° 0 mm 1 m/s 761 mmHg 84%
    20:00 +24°C° 0 mm 1 m/s 762 mmHg 87%
    21:00 +24°C° 0 mm 1 m/s 762 mmHg 90%
    22:00 +24°C° 0.1 mm 1 m/s 762 mmHg 90%
    23:00 +24°C° 0.1 mm 1 m/s 762 mmHg 91%

    27 Martie, Miercuri

    Timp Temperatura Precipitaţii Vânt Presiune Umiditate
    00:00 +24°C° 0.1 mm 1 m/s 762 mmHg 91%
    01:00 +24°C° 0.1 mm 1 m/s 761 mmHg 92%
    02:00 +24°C° 0.1 mm 1 m/s 761 mmHg 93%
    03:00 +23°C° 0.1 mm 1 m/s 761 mmHg 94%
    04:00 +23°C° 0.3 mm 1 m/s 761 mmHg 94%
    05:00 +23°C° 0.3 mm 1 m/s 761 mmHg 95%
    06:00 +23°C° 0.3 mm 1 m/s 762 mmHg 95%
    07:00 +26°C° 0.4 mm 1 m/s 762 mmHg 84%
    08:00 +28°C° 0.4 mm 1 m/s 763 mmHg 72%
    09:00 +29°C° 0.4 mm 0 m/s 763 mmHg 61%
    10:00 +30°C° 0.6 mm 1 m/s 763 mmHg 63%
    11:00 +30°C° 0.6 mm 2 m/s 762 mmHg 65%
    12:00 +30°C° 0.6 mm 2 m/s 762 mmHg 67%
    13:00 +30°C° 0.3 mm 2 m/s 761 mmHg 67%
    14:00 +30°C° 0.3 mm 3 m/s 761 mmHg 67%
    15:00 +30°C° 0.3 mm 3 m/s 760 mmHg 66%
    16:00 +28°C° 0.5 mm 3 m/s 761 mmHg 76%
    17:00 +26°C° 0.5 mm 3 m/s 761 mmHg 86%
    18:00 +25°C° 0.5 mm 3 m/s 761 mmHg 95%
    19:00 +24°C° 0.7 mm 3 m/s 762 mmHg 96%
    20:00 +24°C° 0.7 mm 3 m/s 762 mmHg 96%
    21:00 +24°C° 0.7 mm 3 m/s 763 mmHg 97%
    22:00 +24°C° 0.4 mm 2 m/s 763 mmHg 97%
    23:00 +24°C° 0.4 mm 2 m/s 763 mmHg 97%

    28 Martie, Joi

    Timp Temperatura Precipitaţii Vânt Presiune Umiditate
    00:00 +23°C° 0.4 mm 2 m/s 762 mmHg 97%
    01:00 +23°C° 0.4 mm 2 m/s 762 mmHg 97%
    02:00 +23°C° 0.4 mm 2 m/s 762 mmHg 97%
    03:00 +23°C° 0.4 mm 2 m/s 761 mmHg 97%
    04:00 +23°C° 0.4 mm 2 m/s 762 mmHg 97%
    05:00 +23°C° 0.4 mm 2 m/s 762 mmHg 97%
    06:00 +23°C° 0.4 mm 2 m/s 763 mmHg 97%
    07:00 +25°C° 0.2 mm 2 m/s 763 mmHg 90%
    08:00 +26°C° 0.2 mm 3 m/s 763 mmHg 82%
    09:00 +28°C° 0.2 mm 3 m/s 764 mmHg 74%
    10:00 +29°C° 0 mm 3 m/s 763 mmHg 65%
    11:00 +31°C° 0 mm 3 m/s 763 mmHg 56%
    12:00 +33°C° 0 mm 4 m/s 762 mmHg 47%
    13:00 +33°C° 0 mm 4 m/s 762 mmHg 47%
    14:00 +32°C° 0 mm 4 m/s 761 mmHg 48%
    15:00 +32°C° 0 mm 4 m/s 761 mmHg 49%
    16:00 +29°C° 0 mm 3 m/s 761 mmHg 59%
    17:00 +27°C° 0 mm 3 m/s 761 mmHg 68%
    18:00 +25°C° 0 mm 3 m/s 762 mmHg 78%
    19:00 +24°C° 0 mm 2 m/s 762 mmHg 82%
    20:00 +24°C° 0 mm 2 m/s 763 mmHg 87%
    21:00 +23°C° 0 mm 2 m/s 763 mmHg 91%
    22:00 +21°C° 0 mm 2 m/s 763 mmHg 93%
    23:00 +21°C° 0 mm 2 m/s 763 mmHg 94%

    29 Martie, Vineri

    Timp Temperatura Precipitaţii Vânt Presiune Umiditate
    00:00 +21°C° 0 mm 2 m/s 762 mmHg 96%
    01:00 +20°C° 0 mm 2 m/s 762 mmHg 96%
    02:00 +20°C° 0 mm 2 m/s 762 mmHg 96%
    03:00 +20°C° 0 mm 2 m/s 761 mmHg 96%
    04:00 +20°C° 0 mm 2 m/s 762 mmHg 95%
    05:00 +20°C° 0 mm 2 m/s 762 mmHg 94%
    06:00 +20°C° 0 mm 2 m/s 763 mmHg 93%
    07:00 +24°C° 0 mm 2 m/s 763 mmHg 81%
    08:00 +27°C° 0 mm 2 m/s 763 mmHg 69%
    09:00 +30°C° 0 mm 2 m/s 763 mmHg 57%
    10:00 +31°C° 0.1 mm 3 m/s 763 mmHg 56%
    11:00 +32°C° 0.1 mm 4 m/s 762 mmHg 55%
    12:00 +33°C° 0.1 mm 5 m/s 761 mmHg 54%
    13:00 +33°C° 0 mm 5 m/s 761 mmHg 56%
    14:00 +32°C° 0 mm 5 m/s 760 mmHg 57%
    15:00 +32°C° 0 mm 5 m/s 760 mmHg 58%
    16:00 +29°C° 0 mm 5 m/s 760 mmHg 62%
    17:00 +28°C° 0 mm 5 m/s 760 mmHg 66%
    18:00 +26°C° 0 mm 5 m/s 761 mmHg 70%
    19:00 +26°C° 0 mm 4 m/s 761 mmHg 75%
    20:00 +25°C° 0 mm 4 m/s 762 mmHg 80%
    21:00 +23°C° 0 mm 4 m/s 762 mmHg 85%
    22:00 +23°C° 0 mm 4 m/s 762 mmHg 87%
    23:00 +22°C° 0 mm 3 m/s 762 mmHg 89%
    Arată mai mult